Time,TemperatureF,DewpointF,PressureIn,WindDirection,WindDirectionDegrees,WindSpeedMPH,WindSpeedGustMPH,Humidity,HourlyPrecipIn,Conditions,Clouds,dailyrainin,SoftwareType,DateUTC
2013-03-20 00:02:00,35.1,31.6,27.92,West,270,5.0,10.0,87,-99.99,,,-99.99,meteohub,2013-03-19 23:02:00,
2013-03-20 00:17:00,34.9,31.6,27.91,SW,225,10.0,10.0,88,-99.99,,,-99.99,meteohub,2013-03-19 23:17:00,
2013-03-20 00:32:00,34.7,31.5,27.91,WSW,248,9.0,10.0,88,-99.99,,,-99.99,meteohub,2013-03-19 23:32:00,
2013-03-20 00:47:00,34.5,31.3,27.92,West,270,7.0,11.0,88,-99.99,,,-99.99,meteohub,2013-03-19 23:47:00,
2013-03-20 01:02:00,34.7,31.5,27.92,SW,225,11.0,11.0,88,-99.99,,,-99.99,meteohub,2013-03-20 00:02:00,
2013-03-20 01:17:00,34.3,31.1,27.93,SW,225,4.0,11.0,88,-99.99,,,-99.99,meteohub,2013-03-20 00:17:00,
2013-03-20 01:32:00,34.3,31.1,27.93,SW,225,6.0,8.0,88,-99.99,,,-99.99,meteohub,2013-03-20 00:32:00,
2013-03-20 01:47:00,34.2,30.9,27.93,SW,225,7.0,9.0,88,-99.99,,,-99.99,meteohub,2013-03-20 00:47:00,
2013-03-20 02:02:00,34.2,30.9,27.93,SW,225,6.0,12.0,88,-99.99,,,-99.99,meteohub,2013-03-20 01:02:00,
2013-03-20 02:17:00,34.2,30.9,27.93,SW,225,4.0,6.0,88,-99.99,,,-99.99,meteohub,2013-03-20 01:17:00,
2013-03-20 02:32:00,34.2,30.9,27.93,SW,225,7.0,8.0,88,-99.99,,,-99.99,meteohub,2013-03-20 01:32:00,
2013-03-20 02:47:00,34.3,31.1,27.93,SW,225,8.0,16.0,88,-99.99,,,-99.99,meteohub,2013-03-20 01:47:00,
2013-03-20 03:02:00,34.3,31.1,27.93,SSW,203,14.0,14.0,88,-99.99,,,-99.99,meteohub,2013-03-20 02:02:00,
2013-03-20 03:17:00,34.2,30.9,27.93,SW,225,12.0,14.0,88,-99.99,,,-99.99,meteohub,2013-03-20 02:17:00,
2013-03-20 03:32:00,34.0,30.7,27.93,SSW,203,8.0,15.0,88,-99.99,,,-99.99,meteohub,2013-03-20 02:32:00,
2013-03-20 03:47:00,34.0,30.7,27.93,SSW,203,9.0,13.0,88,-99.99,,,-99.99,meteohub,2013-03-20 02:47:00,
2013-03-20 04:02:00,34.0,30.7,27.93,SW,225,12.0,12.0,88,-99.99,,,-99.99,meteohub,2013-03-20 03:02:00,
2013-03-20 04:18:00,34.0,30.7,27.94,South,180,9.0,12.0,88,-99.99,,,-99.99,meteohub,2013-03-20 03:18:00,
2013-03-20 04:33:00,34.2,30.9,27.93,SW,225,9.0,9.0,88,-99.99,,,-99.99,meteohub,2013-03-20 03:33:00,
2013-03-20 04:48:00,34.0,30.7,27.93,SW,225,10.0,12.0,88,-99.99,,,-99.99,meteohub,2013-03-20 03:48:00,
2013-03-20 05:03:00,33.4,30.0,27.93,South,180,11.0,11.0,87,-99.99,,,-99.99,meteohub,2013-03-20 04:03:00,
2013-03-20 05:17:00,33.4,30.2,27.93,SW,225,11.0,11.0,88,-99.99,,,-99.99,meteohub,2013-03-20 04:17:00,
2013-03-20 05:32:00,33.4,30.2,27.94,SW,225,11.0,11.0,88,-99.99,,,-99.99,meteohub,2013-03-20 04:32:00,
2013-03-20 05:47:00,33.4,30.2,27.94,SW,225,10.0,12.0,88,-99.99,,,-99.99,meteohub,2013-03-20 04:47:00,
2013-03-20 06:02:00,33.4,30.2,27.94,SW,225,11.0,12.0,88,-99.99,,,-99.99,meteohub,2013-03-20 05:02:00,
2013-03-20 06:17:00,33.6,30.7,27.94,SSW,203,10.0,11.0,89,-99.99,,,-99.99,meteohub,2013-03-20 05:17:00,
2013-03-20 06:32:00,34.0,31.1,27.94,SW,225,11.0,12.0,89,-99.99,,,-99.99,meteohub,2013-03-20 05:32:00,
2013-03-20 06:47:00,34.2,30.9,27.96,SW,225,10.0,14.0,88,-99.99,,,-99.99,meteohub,2013-03-20 05:47:00,
2013-03-20 07:02:00,35.1,31.6,27.96,SSW,203,10.0,14.0,87,-99.99,,,-99.99,meteohub,2013-03-20 06:02:00,
2013-03-20 07:17:00,35.8,32.0,27.96,SSW,203,10.0,10.0,86,-99.99,,,-99.99,meteohub,2013-03-20 06:17:00,
2013-03-20 07:32:00,36.9,32.7,27.96,SSW,203,9.0,10.0,85,-99.99,,,-99.99,meteohub,2013-03-20 06:32:00,
2013-03-20 07:47:00,38.3,33.3,27.97,SW,225,6.0,10.0,82,-99.99,,,-99.99,meteohub,2013-03-20 06:47:00,
2013-03-20 08:02:00,39.7,34.2,27.97,SSW,203,11.0,11.0,80,-99.99,,,-99.99,meteohub,2013-03-20 07:02:00,
2013-03-20 08:17:00,40.8,34.5,27.99,SW,225,9.0,11.0,78,-99.99,,,-99.99,meteohub,2013-03-20 07:17:00,
2013-03-20 08:32:00,41.7,34.7,28.00,SW,225,12.0,12.0,76,-99.99,,,-99.99,meteohub,2013-03-20 07:32:00,
2013-03-20 08:47:00,42.8,35.1,28.01,WSW,248,8.0,12.0,74,-99.99,,,-99.99,meteohub,2013-03-20 07:47:00,
2013-03-20 09:02:00,44.1,34.9,28.01,SW,225,7.0,8.0,70,-99.99,,,-99.99,meteohub,2013-03-20 08:02:00,
2013-03-20 09:17:00,44.1,34.9,28.02,WSW,248,9.0,16.0,70,-99.99,,,-99.99,meteohub,2013-03-20 08:17:00,
2013-03-20 09:32:00,43.7,34.5,28.04,SSW,203,10.0,13.0,70,-99.99,,,-99.99,meteohub,2013-03-20 08:32:00,
2013-03-20 09:47:00,44.6,34.7,28.05,SSW,203,9.0,10.0,68,-99.99,,,-99.99,meteohub,2013-03-20 08:47:00,
2013-03-20 10:02:00,45.0,35.4,28.05,South,180,8.0,11.0,69,-99.99,,,-99.99,meteohub,2013-03-20 09:02:00,
2013-03-20 10:17:00,45.9,36.0,28.06,NNW,338,3.0,13.0,68,-99.99,,,-99.99,meteohub,2013-03-20 09:17:00,
2013-03-20 10:32:00,46.8,35.6,28.07,SW,225,0.0,9.0,65,-99.99,,,-99.99,meteohub,2013-03-20 09:32:00,
2013-03-20 10:47:00,47.7,36.5,28.08,SW,225,4.0,9.0,65,-99.99,,,-99.99,meteohub,2013-03-20 09:47:00,
2013-03-20 11:02:00,47.3,35.8,28.08,WSW,248,4.0,9.0,64,-99.99,,,-99.99,meteohub,2013-03-20 10:02:00,
2013-03-20 11:17:00,45.7,35.1,28.09,South,180,5.0,7.0,66,-99.99,,,-99.99,meteohub,2013-03-20 10:17:00,
2013-03-20 11:32:00,46.9,36.5,28.09,West,270,4.0,5.0,67,-99.99,,,-99.99,meteohub,2013-03-20 10:32:00,
2013-03-20 11:47:00,47.5,36.0,28.10,West,270,5.0,6.0,64,-99.99,,,-99.99,meteohub,2013-03-20 10:47:00,
2013-03-20 12:02:00,48.2,36.1,28.10,West,270,6.0,8.0,63,-99.99,,,-99.99,meteohub,2013-03-20 11:02:00,
2013-03-20 12:17:00,48.9,36.9,28.10,SSE,158,3.0,6.0,63,-99.99,,,-99.99,meteohub,2013-03-20 11:17:00,
2013-03-20 12:32:00,49.1,36.7,28.11,South,180,3.0,6.0,62,-99.99,,,-99.99,meteohub,2013-03-20 11:32:00,
2013-03-20 12:47:00,49.5,37.0,28.12,South,180,3.0,4.0,62,-99.99,,,-99.99,meteohub,2013-03-20 11:47:00,
2013-03-20 13:02:00,49.6,37.2,28.12,NNE,23,0.0,3.0,62,-99.99,,,-99.99,meteohub,2013-03-20 12:02:00,
2013-03-20 13:17:00,50.0,37.6,28.12,SW,225,2.0,5.0,62,-99.99,,,-99.99,meteohub,2013-03-20 12:17:00,
2013-03-20 13:32:00,50.5,37.6,28.12,SW,225,3.0,7.0,61,-99.99,,,-99.99,meteohub,2013-03-20 12:32:00,
2013-03-20 13:47:00,50.7,37.8,28.12,South,180,3.0,5.0,61,-99.99,,,-99.99,meteohub,2013-03-20 12:47:00,
2013-03-20 14:02:00,50.7,37.4,28.12,NNW,338,0.0,3.0,60,-99.99,,,-99.99,meteohub,2013-03-20 13:02:00,
2013-03-20 14:17:00,50.2,37.6,28.13,SSE,158,7.0,7.0,62,-99.99,,,-99.99,meteohub,2013-03-20 13:17:00,
2013-03-20 14:32:00,50.2,37.2,28.13,SE,135,3.0,7.0,61,-99.99,,,-99.99,meteohub,2013-03-20 13:32:00,
2013-03-20 14:47:00,49.8,36.9,28.14,East,90,2.0,5.0,61,-99.99,,,-99.99,meteohub,2013-03-20 13:47:00,
2013-03-20 15:02:00,49.8,36.9,28.14,SE,135,4.0,5.0,61,-99.99,,,-99.99,meteohub,2013-03-20 14:02:00,
2013-03-20 15:17:00,49.8,36.5,28.13,South,180,0.0,6.0,60,-99.99,,,-99.99,meteohub,2013-03-20 14:17:00,
2013-03-20 15:32:00,49.5,36.1,28.12,WSW,248,3.0,5.0,60,-99.99,,,-99.99,meteohub,2013-03-20 14:32:00,
2013-03-20 15:47:00,48.9,36.9,28.12,ENE,68,6.0,7.0,63,-99.99,,,-99.99,meteohub,2013-03-20 14:47:00,
2013-03-20 16:02:00,47.8,37.0,28.12,ENE,68,6.0,8.0,66,-99.99,,,-99.99,meteohub,2013-03-20 15:02:00,
2013-03-20 16:17:00,47.1,36.7,28.12,East,90,6.0,7.0,67,-99.99,,,-99.99,meteohub,2013-03-20 15:17:00,
2013-03-20 16:32:00,46.9,36.9,28.11,East,90,4.0,6.0,68,-99.99,,,-99.99,meteohub,2013-03-20 15:32:00,
2013-03-20 16:47:00,46.8,36.7,28.10,ENE,68,6.0,7.0,68,-99.99,,,-99.99,meteohub,2013-03-20 15:47:00,
2013-03-20 17:02:00,46.6,37.0,28.10,East,90,7.0,8.0,69,-99.99,,,-99.99,meteohub,2013-03-20 16:02:00,
2013-03-20 17:17:00,46.4,36.5,28.10,ESE,113,7.0,11.0,68,-99.99,,,-99.99,meteohub,2013-03-20 16:17:00,
2013-03-20 17:32:00,45.9,36.0,28.10,ENE,68,7.0,8.0,68,-99.99,,,-99.99,meteohub,2013-03-20 16:32:00,
2013-03-20 17:47:00,45.1,35.6,28.09,ESE,113,4.0,7.0,69,-99.99,,,-99.99,meteohub,2013-03-20 16:47:00,
2013-03-20 18:02:00,44.4,35.6,28.09,ESE,113,3.0,6.0,71,-99.99,,,-99.99,meteohub,2013-03-20 17:02:00,
2013-03-20 18:17:00,44.1,35.2,28.09,ESE,113,2.0,5.0,71,-99.99,,,-99.99,meteohub,2013-03-20 17:17:00,
2013-03-20 18:32:00,43.3,34.9,28.09,ENE,68,2.0,3.0,72,-99.99,,,-99.99,meteohub,2013-03-20 17:32:00,
2013-03-20 18:47:00,43.0,34.9,28.10,ESE,113,0.0,2.0,73,-99.99,,,-99.99,meteohub,2013-03-20 17:47:00,
2013-03-20 19:02:00,42.8,35.1,28.10,West,270,3.0,0.0,74,-99.99,,,-99.99,meteohub,2013-03-20 18:02:00,
2013-03-20 19:17:00,42.6,35.6,28.11,West,270,3.0,6.0,76,-99.99,,,-99.99,meteohub,2013-03-20 18:17:00,
2013-03-20 19:32:00,42.1,35.8,28.11,West,270,3.0,9.0,78,-99.99,,,-99.99,meteohub,2013-03-20 18:32:00,
2013-03-20 19:47:00,42.1,35.8,28.12,WNW,293,0.0,3.0,78,-99.99,,,-99.99,meteohub,2013-03-20 18:47:00,
2013-03-20 20:02:00,42.1,36.3,28.12,West,270,12.0,12.0,80,-99.99,,,-99.99,meteohub,2013-03-20 19:02:00,
2013-03-20 20:17:00,41.9,36.9,28.13,West,270,8.0,12.0,82,-99.99,,,-99.99,meteohub,2013-03-20 19:17:00,
2013-03-20 20:32:00,41.9,37.0,28.14,West,270,4.0,10.0,83,-99.99,,,-99.99,meteohub,2013-03-20 19:32:00,
2013-03-20 20:47:00,41.5,37.0,28.14,West,270,6.0,9.0,84,-99.99,,,-99.99,meteohub,2013-03-20 19:47:00,
2013-03-20 21:02:00,41.5,37.0,28.14,WSW,248,6.0,9.0,84,-99.99,,,-99.99,meteohub,2013-03-20 20:02:00,
2013-03-20 21:17:00,41.2,37.0,28.14,SW,225,7.0,12.0,85,-99.99,,,-99.99,meteohub,2013-03-20 20:17:00,
2013-03-20 21:32:00,40.8,37.0,28.14,South,180,6.0,8.0,86,-99.99,,,-99.99,meteohub,2013-03-20 20:32:00,
2013-03-20 21:47:00,40.5,36.7,28.14,South,180,9.0,9.0,86,-99.99,,,-99.99,meteohub,2013-03-20 20:47:00,
2013-03-20 22:02:00,40.3,36.7,28.14,SW,225,8.0,11.0,87,-99.99,,,-99.99,meteohub,2013-03-20 21:02:00,
2013-03-20 22:17:00,40.1,36.9,28.14,SW,225,8.0,11.0,88,-99.99,,,-99.99,meteohub,2013-03-20 21:17:00,
2013-03-20 22:32:00,39.9,36.7,28.14,WSW,248,12.0,12.0,88,-99.99,,,-99.99,meteohub,2013-03-20 21:32:00,
2013-03-20 22:47:00,39.4,36.1,28.13,SW,225,10.0,13.0,88,-99.99,,,-99.99,meteohub,2013-03-20 21:47:00,
2013-03-20 23:02:00,38.8,35.6,28.13,SW,225,11.0,11.0,88,-99.99,,,-99.99,meteohub,2013-03-20 22:02:00,
2013-03-20 23:17:00,38.7,35.8,28.13,SW,225,8.0,11.0,89,-99.99,,,-99.99,meteohub,2013-03-20 22:17:00,
2013-03-20 23:32:00,38.5,35.6,28.14,WSW,248,4.0,8.0,89,-99.99,,,-99.99,meteohub,2013-03-20 22:32:00,
2013-03-20 23:47:00,38.5,35.6,28.13,SSW,203,8.0,8.0,89,-99.99,,,-99.99,meteohub,2013-03-20 22:47:00,